Time,TemperatureF,DewpointF,PressureIn,WindDirection,WindDirectionDegrees,WindSpeedMPH,WindSpeedGustMPH,Humidity,HourlyPrecipIn,Conditions,Clouds,dailyrainin,SoftwareType,DateUTC
2013-05-10 00:03:00,63.0,60.0,-100.00,East,90,0.0,0.0,88,0.00,,,-99.99,,2013-05-10 04:03:00,
2013-05-10 00:12:00,63.0,60.0,-100.00,ENE,70,0.0,0.0,88,0.00,,,-99.99,,2013-05-10 04:12:00,
2013-05-10 00:23:00,63.0,60.0,-100.00,East,85,0.0,0.0,88,0.00,,,-99.99,,2013-05-10 04:23:00,
2013-05-10 00:33:00,63.0,59.0,-100.00,East,85,0.0,0.0,87,0.00,,,-99.99,,2013-05-10 04:33:00,
2013-05-10 00:43:00,63.0,60.0,-100.00,ENE,75,0.0,0.0,88,0.00,,,-99.99,,2013-05-10 04:43:00,
2013-05-10 00:52:00,63.0,59.0,-100.00,ENE,65,0.0,0.0,88,0.00,,,-99.99,,2013-05-10 04:52:00,
2013-05-10 01:02:00,63.0,59.0,-100.00,ENE,65,0.0,0.0,88,0.00,,,-99.99,,2013-05-10 05:02:00,
2013-05-10 01:12:00,62.0,59.0,-100.00,East,85,0.0,1.0,88,0.00,,,-99.99,,2013-05-10 05:12:00,
2013-05-10 01:22:00,62.0,58.0,-100.00,NE,55,0.0,0.0,89,0.00,,,-99.99,,2013-05-10 05:22:00,
2013-05-10 01:32:00,61.0,58.0,-100.00,ESE,110,0.0,0.0,88,0.00,,,-99.99,,2013-05-10 05:32:00,
2013-05-10 01:42:00,61.0,58.0,-100.00,ESE,105,0.0,0.0,89,0.00,,,-99.99,,2013-05-10 05:42:00,
2013-05-10 01:52:00,61.0,58.0,-100.00,NE,50,0.0,1.0,89,0.00,,,-99.99,,2013-05-10 05:52:00,
2013-05-10 02:02:00,61.0,58.0,-100.00,ENE,70,0.0,0.0,88,0.00,,,-99.99,,2013-05-10 06:02:00,
2013-05-10 02:12:00,61.0,58.0,-100.00,NE,40,0.0,0.0,89,0.00,,,-99.99,,2013-05-10 06:12:00,
2013-05-10 02:21:00,61.0,58.0,-100.00,East,90,0.0,3.0,89,0.00,,,-99.99,,2013-05-10 06:21:00,
2013-05-10 02:32:00,61.0,58.0,-100.00,ENE,70,0.0,1.0,89,0.00,,,-99.99,,2013-05-10 06:32:00,
2013-05-10 02:42:00,61.0,58.0,-100.00,NE,55,0.0,2.0,89,0.00,,,-99.99,,2013-05-10 06:42:00,
2013-05-10 02:51:00,61.0,58.0,-100.00,NNE,25,0.0,2.0,89,0.00,,,-99.99,,2013-05-10 06:51:00,
2013-05-10 03:02:00,61.0,57.0,-100.00,ENE,75,0.0,3.0,89,0.00,,,-99.99,,2013-05-10 07:02:00,
2013-05-10 03:12:00,61.0,57.0,-100.00,NE,40,0.0,0.0,89,0.00,,,-99.99,,2013-05-10 07:12:00,
2013-05-10 03:22:00,60.0,57.0,-100.00,ENE,70,0.0,0.0,89,0.00,,,-99.99,,2013-05-10 07:22:00,
2013-05-10 03:32:00,60.0,57.0,-100.00,NE,55,0.0,1.0,89,0.00,,,-99.99,,2013-05-10 07:32:00,
2013-05-10 03:42:00,60.0,57.0,-100.00,East,95,0.0,1.0,89,0.00,,,-99.99,,2013-05-10 07:42:00,
2013-05-10 03:52:00,60.0,57.0,-100.00,North,10,0.0,2.0,90,0.00,,,-99.99,,2013-05-10 07:52:00,
2013-05-10 04:02:00,60.0,57.0,-100.00,ENE,75,0.0,1.0,88,0.00,,,-99.99,,2013-05-10 08:02:00,
2013-05-10 04:12:00,60.0,57.0,-100.00,NE,35,0.0,0.0,88,0.00,,,-99.99,,2013-05-10 08:12:00,
2013-05-10 04:22:00,61.0,57.0,-100.00,ENE,65,0.0,3.0,86,0.00,,,-99.99,,2013-05-10 08:22:00,
2013-05-10 04:32:00,61.0,56.0,-100.00,ESE,115,0.0,3.0,86,0.00,,,-99.99,,2013-05-10 08:32:00,
2013-05-10 04:42:00,60.0,56.0,-100.00,ENE,75,0.0,4.0,86,0.00,,,-99.99,,2013-05-10 08:42:00,
2013-05-10 04:52:00,60.0,56.0,-100.00,NE,35,0.0,0.0,86,0.00,,,-99.99,,2013-05-10 08:52:00,
2013-05-10 05:02:00,60.0,56.0,-100.00,NNE,30,0.0,4.0,88,0.00,,,-99.99,,2013-05-10 09:02:00,
2013-05-10 05:11:00,59.0,56.0,-100.00,NE,50,0.0,2.0,87,0.00,,,-99.99,,2013-05-10 09:11:00,
2013-05-10 05:21:00,60.0,56.0,-100.00,NE,40,0.0,0.0,88,0.00,,,-99.99,,2013-05-10 09:21:00,
2013-05-10 05:33:00,59.0,56.0,-100.00,NE,55,0.0,2.0,88,0.00,,,-99.99,,2013-05-10 09:33:00,
2013-05-10 05:43:00,60.0,56.0,-100.00,East,80,0.0,0.0,87,0.00,,,-99.99,,2013-05-10 09:43:00,
2013-05-10 05:52:00,60.0,56.0,-100.00,NE,40,0.0,3.0,88,0.00,,,-99.99,,2013-05-10 09:52:00,
2013-05-10 06:03:00,59.0,56.0,-100.00,North,5,0.0,1.0,88,0.00,,,-99.99,,2013-05-10 10:03:00,
2013-05-10 06:12:00,59.0,55.0,-100.00,ESE,115,0.0,0.0,86,0.00,,,-99.99,,2013-05-10 10:12:00,
2013-05-10 06:23:00,60.0,56.0,-100.00,NE,40,0.0,0.0,88,0.00,,,-99.99,,2013-05-10 10:23:00,
2013-05-10 06:32:00,59.0,55.0,-100.00,NE,45,0.0,1.0,86,0.00,,,-99.99,,2013-05-10 10:32:00,
2013-05-10 06:42:00,59.0,56.0,-100.00,NNE,30,0.0,0.0,87,0.00,,,-99.99,,2013-05-10 10:42:00,
2013-05-10 06:52:00,60.0,56.0,-100.00,NNE,30,0.0,0.0,87,0.00,,,-99.99,,2013-05-10 10:52:00,
2013-05-10 07:02:00,60.0,56.0,-100.00,NNE,15,0.0,0.0,88,0.00,,,-99.99,,2013-05-10 11:02:00,
2013-05-10 07:12:00,59.0,56.0,-100.00,NE,35,0.0,0.0,88,0.00,,,-99.99,,2013-05-10 11:12:00,
2013-05-10 07:22:00,59.0,56.0,-100.00,East,85,0.0,0.0,88,0.00,,,-99.99,,2013-05-10 11:22:00,
2013-05-10 07:32:00,60.0,57.0,-100.00,East,80,0.0,1.0,88,0.00,,,-99.99,,2013-05-10 11:32:00,
2013-05-10 07:42:00,60.0,57.0,-100.00,ENE,75,0.0,1.0,88,0.00,,,-99.99,,2013-05-10 11:42:00,
2013-05-10 07:51:00,61.0,57.0,-100.00,ESE,110,0.0,1.0,84,0.00,,,-99.99,,2013-05-10 11:51:00,
2013-05-10 08:02:00,63.0,57.0,-100.00,East,80,0.0,1.0,82,0.00,,,-99.99,,2013-05-10 12:02:00,
2013-05-10 08:12:00,64.0,58.0,-100.00,NNE,30,0.0,1.0,78,0.00,,,-99.99,,2013-05-10 12:12:00,
2013-05-10 08:21:00,65.0,57.0,-100.00,WNW,290,0.0,0.0,76,0.00,,,-99.99,,2013-05-10 12:21:00,
2013-05-10 08:32:00,66.0,58.0,-100.00,SE,140,0.0,3.0,75,0.00,,,-99.99,,2013-05-10 12:32:00,
2013-05-10 08:42:00,67.0,58.0,-100.00,SW,225,0.0,3.0,71,0.00,,,-99.99,,2013-05-10 12:42:00,
2013-05-10 08:51:00,68.0,58.0,-100.00,SE,130,1.0,3.0,70,0.00,,,-99.99,,2013-05-10 12:51:00,
2013-05-10 09:01:00,69.0,58.0,-100.00,SW,230,1.0,2.0,67,0.00,,,-99.99,,2013-05-10 13:01:00,
2013-05-10 09:11:00,70.0,58.0,-100.00,SW,230,1.0,3.0,65,0.00,,,-99.99,,2013-05-10 13:11:00,
2013-05-10 09:21:00,70.0,57.0,-100.00,SSE,150,2.0,9.0,64,0.00,,,-99.99,,2013-05-10 13:21:00,
2013-05-10 09:32:00,71.0,57.0,-100.00,SW,215,3.0,9.0,62,0.00,,,-99.99,,2013-05-10 13:32:00,
2013-05-10 09:42:00,72.0,58.0,-100.00,SW,235,1.0,9.0,62,0.00,,,-99.99,,2013-05-10 13:42:00,
2013-05-10 09:52:00,72.0,58.0,-100.00,SW,220,3.0,9.0,61,0.00,,,-99.99,,2013-05-10 13:52:00,
2013-05-10 10:02:00,72.0,58.0,-100.00,SSW,205,2.0,11.0,61,0.00,,,-99.99,,2013-05-10 14:02:00,
2013-05-10 10:11:00,72.0,58.0,-100.00,SSW,195,1.0,8.0,60,0.00,,,-99.99,,2013-05-10 14:11:00,
2013-05-10 10:21:00,73.0,58.0,-100.00,South,190,2.0,7.0,60,0.00,,,-99.99,,2013-05-10 14:21:00,
2013-05-10 10:32:00,73.0,59.0,-100.00,SW,220,2.0,9.0,60,0.00,,,-99.99,,2013-05-10 14:32:00,
2013-05-10 10:42:00,74.0,58.0,-100.00,SSW,195,4.0,7.0,58,0.00,,,-99.99,,2013-05-10 14:42:00,
2013-05-10 10:51:00,75.0,60.0,-100.00,South,175,3.0,7.0,59,0.00,,,-99.99,,2013-05-10 14:51:00,
2013-05-10 11:02:00,75.0,60.0,-100.00,SSW,200,3.0,7.0,59,0.00,,,-99.99,,2013-05-10 15:02:00,
2013-05-10 11:20:00,-999.0,-99.9,-100.00,South,190,4.0,7.0,57,0.00,,,-99.99,,2013-05-10 15:20:00,
2013-05-10 11:32:00,76.0,60.0,-100.00,South,180,4.0,8.0,56,0.00,,,-99.99,,2013-05-10 15:32:00,
2013-05-10 11:42:00,76.0,60.0,-100.00,South,180,1.0,9.0,57,0.00,,,-99.99,,2013-05-10 15:42:00,
2013-05-10 11:52:00,76.0,59.0,-100.00,SW,220,4.0,10.0,56,0.00,,,-99.99,,2013-05-10 15:52:00,
2013-05-10 12:02:00,75.0,59.0,-100.00,SSW,210,5.0,9.0,58,0.00,,,-99.99,,2013-05-10 16:02:00,
2013-05-10 12:12:00,75.0,59.0,-100.00,SW,220,4.0,9.0,57,0.00,,,-99.99,,2013-05-10 16:12:00,
2013-05-10 12:23:00,76.0,60.0,-100.00,SW,230,3.0,8.0,57,0.00,,,-99.99,,2013-05-10 16:23:00,
2013-05-10 12:33:00,77.0,59.0,-100.00,SW,215,3.0,10.0,55,0.00,,,-99.99,,2013-05-10 16:33:00,
2013-05-10 12:43:00,76.0,60.0,-100.00,South,190,3.0,9.0,57,0.00,,,-99.99,,2013-05-10 16:43:00,
2013-05-10 12:52:00,76.0,60.0,-100.00,SE,140,6.0,11.0,57,0.00,,,-99.99,,2013-05-10 16:52:00,
2013-05-10 13:02:00,77.0,60.0,-100.00,SW,215,6.0,11.0,56,0.00,,,-99.99,,2013-05-10 17:02:00,
2013-05-10 13:12:00,77.0,61.0,-100.00,South,185,5.0,12.0,57,0.00,,,-99.99,,2013-05-10 17:12:00,
2013-05-10 13:22:00,78.0,60.0,-100.00,SSE,150,6.0,11.0,54,0.00,,,-99.99,,2013-05-10 17:22:00,
2013-05-10 13:32:00,78.0,60.0,-100.00,SSW,205,7.0,12.0,53,0.00,,,-99.99,,2013-05-10 17:32:00,
2013-05-10 13:42:00,78.0,60.0,-100.00,SW,225,5.0,12.0,53,0.00,,,-99.99,,2013-05-10 17:42:00,
2013-05-10 13:52:00,78.0,59.0,-100.00,SW,215,8.0,17.0,53,0.00,,,-99.99,,2013-05-10 17:52:00,
2013-05-10 14:10:00,-999.0,-99.9,-100.00,SSW,200,7.0,16.0,53,0.00,,,-99.99,,2013-05-10 18:10:00,
2013-05-10 14:22:00,74.0,62.0,-100.00,SW,215,9.0,13.0,65,0.55,,,-99.99,,2013-05-10 18:22:00,
2013-05-10 14:34:00,64.0,62.0,-100.00,NW,310,11.0,22.0,91,0.55,,,-99.99,,2013-05-10 18:34:00,
2013-05-10 14:43:00,65.0,63.0,-100.00,West,280,4.0,15.0,92,0.00,,,-99.99,,2013-05-10 18:43:00,
2013-05-10 14:54:00,66.0,64.0,-100.00,WSW,245,3.0,12.0,91,0.00,,,-99.99,,2013-05-10 18:54:00,
2013-05-10 15:02:00,68.0,65.0,-100.00,SW,225,3.0,10.0,89,0.00,,,-99.99,,2013-05-10 19:02:00,
2013-05-10 15:11:00,68.0,64.0,-100.00,West,275,3.0,9.0,87,0.00,,,-99.99,,2013-05-10 19:11:00,
2013-05-10 15:21:00,68.0,64.0,-100.00,SSW,200,1.0,6.0,87,0.00,,,-99.99,,2013-05-10 19:21:00,
2013-05-10 15:32:00,69.0,64.0,-100.00,SW,220,2.0,8.0,84,0.00,,,-99.99,,2013-05-10 19:32:00,
2013-05-10 15:42:00,70.0,64.0,-100.00,SW,225,3.0,8.0,81,0.00,,,-99.99,,2013-05-10 19:42:00,
2013-05-10 15:52:00,70.0,64.0,-100.00,SW,215,4.0,9.0,79,0.00,,,-99.99,,2013-05-10 19:52:00,
2013-05-10 16:02:00,70.0,63.0,-100.00,WSW,250,6.0,11.0,78,0.00,,,-99.99,,2013-05-10 20:02:00,
2013-05-10 16:12:00,70.0,63.0,-100.00,WSW,245,6.0,11.0,78,0.00,,,-99.99,,2013-05-10 20:12:00,
2013-05-10 16:21:00,70.0,63.0,-100.00,WSW,255,6.0,11.0,77,0.00,,,-99.99,,2013-05-10 20:21:00,
2013-05-10 16:32:00,70.0,62.0,-100.00,South,190,7.0,11.0,75,0.00,,,-99.99,,2013-05-10 20:32:00,
2013-05-10 16:42:00,70.0,62.0,-100.00,SW,215,4.0,12.0,75,0.00,,,-99.99,,2013-05-10 20:42:00,
2013-05-10 16:52:00,70.0,61.0,-100.00,SSW,200,1.0,9.0,73,0.00,,,-99.99,,2013-05-10 20:52:00,
2013-05-10 17:02:00,69.0,60.0,-100.00,SSW,210,8.0,16.0,71,0.00,,,-99.99,,2013-05-10 21:02:00,
2013-05-10 17:11:00,69.0,59.0,-100.00,SSW,200,7.0,12.0,70,0.00,,,-99.99,,2013-05-10 21:11:00,
2013-05-10 17:25:00,70.0,60.0,-100.00,SSE,155,3.0,8.0,72,0.00,,,-99.99,,2013-05-10 21:25:00,
2013-05-10 17:32:00,69.0,60.0,-100.00,SSE,165,2.0,9.0,73,0.00,,,-99.99,,2013-05-10 21:32:00,
2013-05-10 17:43:00,69.0,60.0,-100.00,SSW,205,2.0,7.0,74,0.00,,,-99.99,,2013-05-10 21:43:00,
2013-05-10 17:52:00,69.0,60.0,-100.00,SW,215,4.0,9.0,73,0.00,,,-99.99,,2013-05-10 21:52:00,
2013-05-10 18:02:00,68.0,60.0,-100.00,SSW,195,2.0,7.0,75,0.00,,,-99.99,,2013-05-10 22:02:00,
2013-05-10 18:13:00,69.0,61.0,-100.00,SW,225,2.0,6.0,76,0.00,,,-99.99,,2013-05-10 22:13:00,
2013-05-10 18:22:00,68.0,61.0,-100.00,SW,235,1.0,5.0,77,0.55,,,-99.99,,2013-05-10 22:22:00,
2013-05-10 18:32:00,68.0,61.0,-100.00,SW,215,1.0,6.0,78,0.00,,,-99.99,,2013-05-10 22:32:00,
2013-05-10 18:42:00,68.0,61.0,-100.00,South,180,0.0,4.0,78,0.00,,,-99.99,,2013-05-10 22:42:00,
2013-05-10 18:52:00,68.0,61.0,-100.00,SE,145,3.0,7.0,78,0.00,,,-99.99,,2013-05-10 22:52:00,
2013-05-10 19:02:00,68.0,61.0,-100.00,South,175,1.0,6.0,78,0.00,,,-99.99,,2013-05-10 23:02:00,
2013-05-10 19:12:00,68.0,61.0,-100.00,SW,230,1.0,4.0,77,0.00,,,-99.99,,2013-05-10 23:12:00,
2013-05-10 19:22:00,68.0,60.0,-100.00,SSW,195,2.0,8.0,76,0.00,,,-99.99,,2013-05-10 23:22:00,
2013-05-10 19:33:00,68.0,60.0,-100.00,SSW,205,6.0,11.0,74,0.00,,,-99.99,,2013-05-10 23:33:00,
2013-05-10 19:42:00,68.0,61.0,-100.00,SW,235,2.0,7.0,77,0.00,,,-99.99,,2013-05-10 23:42:00,
2013-05-10 19:52:00,67.0,61.0,-100.00,SSW,210,4.0,9.0,79,0.00,,,-99.99,,2013-05-10 23:52:00,
2013-05-10 20:02:00,66.0,61.0,-100.00,South,190,2.0,6.0,83,0.00,,,-99.99,,2013-05-11 00:02:00,
2013-05-10 20:11:00,66.0,61.0,-100.00,South,190,1.0,2.0,85,0.55,,,-99.99,,2013-05-11 00:11:00,
2013-05-10 20:21:00,65.0,62.0,-100.00,WSW,245,1.0,4.0,87,0.55,,,-99.99,,2013-05-11 00:21:00,
2013-05-10 20:32:00,65.0,62.0,-100.00,SE,145,1.0,9.0,88,0.00,,,-99.99,,2013-05-11 00:32:00,
2013-05-10 20:42:00,65.0,62.0,-100.00,SSW,195,0.0,5.0,89,0.00,,,-99.99,,2013-05-11 00:42:00,
2013-05-10 20:52:00,65.0,62.0,-100.00,West,270,0.0,3.0,89,0.55,,,-99.99,,2013-05-11 00:52:00,
2013-05-10 21:01:00,65.0,62.0,-100.00,West,260,1.0,4.0,90,0.00,,,-99.99,,2013-05-11 01:01:00,
2013-05-10 21:11:00,65.0,62.0,-100.00,SW,220,0.0,4.0,90,0.00,,,-99.99,,2013-05-11 01:11:00,
2013-05-10 21:21:00,65.0,62.0,-100.00,SSW,210,2.0,9.0,90,0.00,,,-99.99,,2013-05-11 01:21:00,
2013-05-10 21:32:00,65.0,62.0,-100.00,SW,230,2.0,5.0,90,0.00,,,-99.99,,2013-05-11 01:32:00,
2013-05-10 21:42:00,65.0,62.0,-100.00,WSW,245,3.0,7.0,90,0.00,,,-99.99,,2013-05-11 01:42:00,
2013-05-10 21:52:00,65.0,62.0,-100.00,WSW,250,4.0,8.0,89,0.00,,,-99.99,,2013-05-11 01:52:00,
2013-05-10 22:02:00,65.0,62.0,-100.00,SSW,200,3.0,9.0,89,0.00,,,-99.99,,2013-05-11 02:02:00,
2013-05-10 22:11:00,65.0,62.0,-100.00,SW,225,4.0,9.0,88,0.00,,,-99.99,,2013-05-11 02:11:00,
2013-05-10 22:22:00,65.0,62.0,-100.00,WNW,295,1.0,8.0,88,0.00,,,-99.99,,2013-05-11 02:22:00,
2013-05-10 22:32:00,65.0,62.0,-100.00,WSW,240,2.0,7.0,88,0.00,,,-99.99,,2013-05-11 02:32:00,
2013-05-10 22:42:00,65.0,62.0,-100.00,SW,230,4.0,9.0,88,0.00,,,-99.99,,2013-05-11 02:42:00,
2013-05-10 22:52:00,65.0,61.0,-100.00,WSW,255,2.0,9.0,88,0.00,,,-99.99,,2013-05-11 02:52:00,
2013-05-10 23:01:00,65.0,61.0,-100.00,West,270,4.0,9.0,87,0.00,,,-99.99,,2013-05-11 03:01:00,
2013-05-10 23:11:00,65.0,61.0,-100.00,SW,235,4.0,12.0,87,0.55,,,-99.99,,2013-05-11 03:11:00,
2013-05-10 23:21:00,64.0,60.0,-100.00,SW,230,7.0,12.0,87,0.00,,,-99.99,,2013-05-11 03:21:00,
2013-05-10 23:33:00,64.0,60.0,-100.00,WSW,245,5.0,10.0,87,0.00,,,-99.99,,2013-05-11 03:33:00,
2013-05-10 23:42:00,64.0,60.0,-100.00,SW,235,4.0,11.0,87,0.00,,,-99.99,,2013-05-11 03:42:00,
2013-05-10 23:53:00,64.0,60.0,-100.00,WSW,245,4.0,11.0,87,0.00,,,-99.99,,2013-05-11 03:53:00,